FW6908 Weather Reports


Display with metric or nautical units.
time (UTC)temp
F
wind
direction
speed
MPH
gust
MPH
rain 1hr
in
rain 24hr
in
rain mn
in
humidity
%
barometer
mb
20260509004046 62 59 0.0 3.0 0.00 0.00 0.00 73 1017.6
20260509003546 62 59 1.0 3.0 0.00 0.00 0.00 73 1017.7
20260509003046 63 60 0.0 4.0 0.00 0.00 0.00 73 1017.8
20260509002545 63 63 1.0 4.0 0.00 0.00 0.00 73 1017.7
20260509002044 63 51 0.0 1.0 0.00 0.00 0.00 73 1017.9
20260509001545 62 48 0.0 1.0 0.00 0.00 0.00 73 1018.1
20260509001042 62 48 0.0 3.0 0.00 0.00 0.00 74 1018.2
20260509000546 62 48 1.0 4.0 0.00 0.00 0.00 74 1018.0
20260509000041 63 45 2.0 4.0 0.00 0.00 0.00 73 1018.2
20260508235539 63 49 2.0 4.0 0.00 0.00 0.00 72 1018.1
20260508235041 64 64 0.0 0.0 0.00 0.00 0.00 71 1018.1
20260508234538 64 67 0.0 0.0 0.00 0.00 0.00 71 1018.1
20260508234041 64 59 0.0 0.0 0.00 0.00 0.00 71 1018.2
20260508233537 64 59 0.0 0.0 0.00 0.00 0.00 71 1018.2
20260508233047 64 58 0.0 0.0 0.00 0.00 0.00 71 1018.3
20260508232535 64 57 0.0 0.0 0.00 0.00 0.00 70 1018.5
20260508232034 64 57 0.0 1.0 0.00 0.00 0.00 70 1018.6
20260508231537 64 57 0.0 4.0 0.00 0.00 0.00 70 1018.5
20260508231036 64 55 0.0 6.0 0.00 0.00 0.00 70 1018.6
20260508230533 65 37 3.0 6.0 0.00 0.00 0.00 69 1018.7
20260508230032 65 259 1.0 4.0 0.00 0.00 0.00 69 1018.7
20260508225533 65 259 1.0 4.0 0.00 0.00 0.00 69 1018.7
20260508225031 65 245 3.0 5.0 0.00 0.00 0.00 68 1018.7
20260508224530 65 241 3.0 5.0 0.00 0.00 0.00 69 1018.7
20260508224030 65 242 3.0 4.0 0.00 0.00 0.00 68 1018.7
20260508223529 65 246 2.0 4.0 0.00 0.00 0.00 68 1018.7
20260508223029 65 315 2.0 4.0 0.00 0.00 0.00 68 1018.8
20260508222529 65 329 2.0 4.0 0.00 0.00 0.00 67 1018.8
20260508222028 66 316 3.0 4.0 0.00 0.00 0.00 67 1018.9
20260508221527 66 267 2.0 6.0 0.00 0.00 0.00 66 1018.8
20260508221029 66 237 3.0 6.0 0.00 0.00 0.00 65 1018.7
20260508220528 66 261 4.0 6.0 0.00 0.00 0.00 65 1018.8
20260508220026 66 252 4.0 5.0 0.00 0.00 0.00 65 1018.9
20260508215525 66 254 2.0 4.0 0.00 0.00 0.00 64 1018.9
20260508215024 66 306 2.0 5.0 0.00 0.00 0.00 65 1018.9
20260508214527 66 303 2.0 4.0 0.00 0.00 0.00 63 1018.9
20260508214024 66 261 2.0 6.0 0.00 0.00 0.00 63 1018.8
20260508213523 66 263 2.0 8.0 0.00 0.00 0.00 63 1018.9
20260508213023 66 271 3.0 8.0 0.00 0.00 0.00 63 1018.9
20260508212522 66 249 4.0 7.0 0.00 0.00 0.00 62 1019.0
20260508212023 66 258 3.0 7.0 0.00 0.00 0.00 62 1018.9
20260508211529 66 276 3.0 7.0 0.00 0.00 0.00 61 1019.0
20260508211028 67 253 3.0 8.0 0.00 0.00 0.00 61 1018.9
20260508210519 67 253 3.0 10.0 0.00 0.00 0.00 60 1018.7
20260508210018 67 212 5.0 8.0 0.00 0.00 0.00 60 1018.6
20260508205517 67 215 4.0 9.0 0.00 0.00 0.00 60 1018.8
20260508205019 67 247 3.0 9.0 0.00 0.00 0.00 59 1018.9
20260508204517 67 255 6.0 9.0 0.00 0.00 0.00 58 1019.1
20260508204016 67 250 5.0 9.0 0.00 0.00 0.00 57 1019.0
20260508203516 67 240 5.0 9.0 0.00 0.00 0.00 57 1018.9
20260508203017 67 265 6.0 9.0 0.00 0.00 0.00 56 1019.0
20260508202516 67 225 5.0 8.0 0.00 0.00 0.00 56 1018.9
20260508202016 67 259 2.0 5.0 0.00 0.00 0.00 56 1019.0
20260508201516 67 341 2.0 6.0 0.00 0.00 0.00 57 1019.0
20260508201016 67 10 4.0 6.0 0.00 0.00 0.00 56 1018.9
20260508200516 68 313 0.0 4.0 0.00 0.00 0.00 55 1018.6
20260508200016 68 292 1.0 7.0 0.00 0.00 0.00 55 1018.5
20260508195515 68 315 3.0 7.0 0.00 0.00 0.00 54 1018.4
20260508195018 68 240 4.0 7.0 0.00 0.00 0.00 53 1018.2
20260508194516 68 242 5.0 8.0 0.00 0.00 0.00 53 1018.3
20260508194016 68 227 5.0 8.0 0.00 0.00 0.00 54 1018.3
20260508193514 68 219 4.0 8.0 0.00 0.00 0.00 54 1018.3
20260508193014 68 267 6.0 8.0 0.00 0.00 0.00 54 1018.5
20260508192514 68 268 4.0 8.0 0.00 0.00 0.00 55 1018.4
20260508192014 68 296 3.0 7.0 0.00 0.00 0.00 57 1018.3
20260508191519 68 257 4.0 7.0 0.00 0.00 0.00 57 1018.1
20260508191013 68 254 2.0 6.0 0.00 0.00 0.00 58 1018.2
20260508190515 68 267 3.0 6.0 0.00 0.00 0.00 59 1018.1
20260508190018 68 260 4.0 6.0 0.00 0.00 0.00 59 1018.3
20260508185513 68 281 2.0 3.0 0.00 0.00 0.00 59 1018.1
20260508185012 68 311 1.0 4.0 0.00 0.00 0.00 59 1017.9
20260508184513 68 320 2.0 4.0 0.00 0.00 0.00 58 1017.9
20260508184011 68 10 1.0 4.0 0.00 0.00 0.00 59 1017.7
20260508183511 68 136 1.0 3.0 0.00 0.00 0.00 59 1017.6
20260508183012 68 148 1.0 3.0 0.00 0.00 0.00 60 1017.6
20260508182515 67 67 1.0 3.0 0.00 0.00 0.00 60 1017.5
20260508182011 68 27 0.0 4.0 0.00 0.00 0.00 59 1017.5
20260508181511 68 345 2.0 8.0 0.00 0.00 0.00 59 1017.7
20260508181011 68 349 4.0 8.0 0.00 0.00 0.00 59 1017.7
20260508180512 68 311 5.0 8.0 0.00 0.00 0.00 59 1017.5
20260508180011 67 316 2.0 6.0 0.00 0.00 0.00 59 1017.3
20260508175511 67 271 3.0 6.0 0.00 0.00 0.00 59 1017.0
20260508175010 67 262 2.0 7.0 0.00 0.00 0.00 59 1017.0
20260508174510 68 313 3.0 9.0 0.00 0.00 0.00 59 1017.1
20260508174010 68 280 3.0 10.0 0.00 0.00 0.00 59 1016.9
20260508173510 68 288 5.0 10.0 0.00 0.00 0.00 58 1016.8
20260508173010 68 282 5.0 9.0 0.00 0.00 0.00 58 1016.7
20260508172510 68 270 6.0 10.0 0.00 0.00 0.00 57 1016.7
20260508172010 68 246 6.0 10.0 0.00 0.00 0.00 56 1016.5
20260508171522 69 259 6.0 11.0 0.00 0.00 0.00 56 1016.6
20260508171010 69 248 8.0 14.0 0.00 0.00 0.00 55 1016.7
20260508170510 69 232 9.0 13.0 0.00 0.00 0.00 54 1016.8
20260508170009 69 226 8.0 12.0 0.00 0.00 0.00 54 1016.9
20260508165509 69 228 7.0 11.0 0.00 0.00 0.00 54 1016.9
20260508165008 69 259 6.0 9.0 0.00 0.00 0.00 54 1016.8
20260508164508 69 232 5.0 10.0 0.00 0.00 0.00 54 1016.9
20260508164008 69 255 7.0 11.0 0.00 0.00 0.00 53 1016.8
20260508163507 69 261 8.0 13.0 0.00 0.00 0.00 53 1016.9
20260508163007 70 259 9.0 13.0 0.00 0.00 0.00 52 1016.9
20260508162507 70 232 9.0 13.0 0.00 0.00 0.00 51 1016.7
20260508162007 70 240 7.0 11.0 0.00 0.00 0.00 52 1016.7
20260508161507 70 263 7.0 11.0 0.00 0.00 0.00 52 1016.7
20260508161008 70 263 8.0 15.0 0.00 0.00 0.00 51 1016.7
20260508160506 70 229 6.0 15.0 0.00 0.00 0.00 51 1016.6
20260508160012 70 209 8.0 13.0 0.00 0.00 0.00 51 1016.5
20260508155510 70 218 10.0 15.0 0.00 0.00 0.00 51 1016.7
20260508155007 70 221 8.0 14.0 0.00 0.00 0.00 51 1016.5
20260508154506 70 260 10.0 14.0 0.00 0.00 0.00 50 1016.6
20260508154006 71 200 9.0 13.0 0.00 0.00 0.00 50 1016.7
20260508153505 70 227 6.0 13.0 0.00 0.00 0.00 50 1016.7
20260508153005 70 256 10.0 15.0 0.00 0.00 0.00 51 1016.7
20260508152506 70 273 12.0 15.0 0.00 0.00 0.00 51 1016.7
20260508152103 70 267 11.0 14.0 0.00 0.00 0.00 51 1016.7
20260508151503 71 232 7.0 15.0 0.00 0.00 0.00 50 1016.8
20260508151004 71 263 11.0 15.0 0.00 0.00 0.00 50 1016.7
20260508150506 71 240 9.0 14.0 0.00 0.00 0.00 51 1016.7
20260508150003 71 239 8.0 14.0 0.00 0.00 0.00 50 1016.6
20260508145502 71 241 12.0 14.0 0.00 0.00 0.00 50 1016.5
20260508145001 72 233 10.0 18.0 0.00 0.00 0.00 50 1016.6
20260508144605 72 228 8.0 18.0 0.00 0.00 0.00 51 1016.5
20260508144100 73 265 9.0 14.0 0.00 0.00 0.00 50 1016.5
20260508143559 72 226 9.0 19.0 0.00 0.00 0.00 52 1016.5
20260508143101 73 224 11.0 19.0 0.00 0.00 0.00 52 1016.6
20260508142558 72 200 10.0 14.0 0.00 0.00 0.00 51 1016.5
20260508142100 72 227 10.0 14.0 0.00 0.00 0.00 51 1016.6
20260508141558 73 197 9.0 15.0 0.00 0.00 0.00 50 1016.6
20260508141056 73 240 9.0 16.0 0.00 0.00 0.00 48 1016.6
20260508140555 73 213 8.0 16.0 0.00 0.00 0.00 48 1016.7
20260508140103 73 273 11.0 15.0 0.00 0.00 0.00 49 1016.7
20260508135555 72 286 5.0 15.0 0.00 0.00 0.00 49 1016.7
20260508135054 73 254 10.0 15.0 0.00 0.00 0.00 47 1016.8
20260508134555 73 181 7.0 11.0 0.00 0.00 0.00 46 1016.8
20260508134052 73 211 6.0 15.0 0.00 0.00 0.00 49 1016.9
20260508133554 73 247 10.0 15.0 0.00 0.00 0.00 50 1017.0
20260508133056 72 246 7.0 17.0 0.00 0.00 0.00 49 1017.1
20260508132549 72 228 7.0 13.0 0.00 0.00 0.00 49 1017.1
20260508132048 73 266 11.0 13.0 0.00 0.00 0.00 47 1017.1
20260508131550 72 183 7.0 14.0 0.00 0.00 0.00 49 1017.2
20260508131047 72 202 9.0 16.0 0.00 0.00 0.00 48 1017.3
20260508130546 71 200 10.0 16.0 0.00 0.00 0.00 48 1017.4
20260508125648 72 273 8.0 16.0 0.00 0.00 0.00 47 1017.4
20260508125043 72 261 7.0 13.0 0.00 0.00 0.00 46 1017.5
20260508124549 71 208 7.0 15.0 0.00 0.00 0.00 46 1017.6
20260508124046 71 197 8.0 15.0 0.00 0.00 0.00 46 1017.7
20260508123542 71 198 9.0 19.0 0.00 0.00 0.00 46 1017.8
20260508123052 71 215 10.0 19.0 0.00 0.00 0.00 45 1017.9
20260508122541 72 219 10.0 18.0 0.00 0.00 0.00 45 1018.1
20260508122041 72 235 12.0 17.0 0.00 0.00 0.00 45 1018.1
20260508121544 72 215 10.0 17.0 0.00 0.00 0.00 45 1018.1
20260508121039 73 200 10.0 15.0 0.00 0.00 0.00 44 1018.2
20260508120539 73 248 6.0 14.0 0.00 0.00 0.00 45 1018.3
20260508120038 72 204 9.0 19.0 0.00 0.00 0.00 46 1018.2
20260508115537 71 211 10.0 19.0 0.00 0.00 0.00 45 1018.2
20260508115036 72 202 8.0 16.0 0.00 0.00 0.00 46 1018.3
20260508114545 72 234 9.0 16.0 0.00 0.00 0.00 45 1018.3
20260508114034 72 219 8.0 15.0 0.00 0.00 0.00 46 1018.0
20260508113533 71 221 5.0 8.0 0.00 0.00 0.00 51 1018.2
20260508113033 70 205 1.0 6.0 0.00 0.00 0.00 50 1018.1
20260508112531 70 130 2.0 7.0 0.00 0.00 0.00 50 1017.8
20260508112032 70 290 3.0 7.0 0.00 0.00 0.00 50 1018.7
20260508111531 70 285 1.0 4.0 0.00 0.00 0.00 51 1018.6
20260508111030 70 283 2.0 5.0 0.00 0.00 0.00 52 1018.6
20260508110531 69 304 3.0 7.0 0.00 0.00 0.00 52 1018.7
20260508110034 69 304 4.0 7.0 0.00 0.00 0.00 53 1019.0
20260508105529 69 257 3.0 6.0 0.00 0.00 0.00 53 1018.9
20260508105032 69 260 3.0 7.0 0.00 0.00 0.00 54 1019.1
20260508104529 69 263 4.0 7.0 0.00 0.00 0.00 53 1019.2
20260508104028 69 240 2.0 8.0 0.00 0.00 0.00 54 1019.2
20260508103528 69 254 5.0 9.0 0.00 0.00 0.00 54 1019.4
20260508103037 69 269 7.0 9.0 0.00 0.00 0.00 54 1019.5
20260508102528 69 252 6.0 9.0 0.00 0.00 0.00 54 1019.5
20260508102028 69 254 4.0 7.0 0.00 0.00 0.00 55 1019.4
20260508101526 69 232 3.0 8.0 0.00 0.00 0.00 55 1019.3
20260508101025 69 208 4.0 7.0 0.00 0.00 0.00 55 1019.3
20260508100525 69 204 4.0 10.0 0.00 0.00 0.00 55 1019.3
20260508100024 69 261 5.0 10.0 0.00 0.00 0.00 56 1019.5
20260508095524 68 219 4.0 9.0 0.00 0.00 0.00 57 1019.6
20260508095027 68 268 7.0 10.0 0.00 0.00 0.00 57 1019.6
20260508094539 68 246 7.0 10.0 0.00 0.00 0.00 57 1019.8
20260508094023 68 259 5.0 10.0 0.00 0.00 0.00 57 1020.0
20260508093523 68 237 6.0 10.0 0.00 0.00 0.00 56 1020.0
20260508093026 68 288 7.0 9.0 0.00 0.00 0.00 55 1020.1
20260508092522 68 253 7.0 9.0 0.00 0.00 0.00 55 1020.0
20260508092021 68 263 5.0 10.0 0.00 0.00 0.00 55 1020.0
20260508091539 68 243 7.0 10.0 0.00 0.00 0.00 55 1020.1
20260508091021 69 248 5.0 12.0 0.00 0.00 0.00 55 1020.1
20260508090521 68 227 6.0 12.0 0.00 0.00 0.00 56 1020.1
20260508090020 68 229 8.0 12.0 0.00 0.00 0.00 56 1020.3
20260508085522 67 221 5.0 10.0 0.00 0.00 0.00 59 1020.3
20260508085019 67 261 6.0 9.0 0.00 0.00 0.00 59 1020.3
20260508084516 67 256 3.0 8.0 0.00 0.00 0.00 61 1020.3
20260508084016 67 257 5.0 8.0 0.00 0.00 0.00 60 1020.3
20260508083516 67 246 4.0 8.0 0.00 0.00 0.00 60 1020.4
20260508083016 67 277 4.0 7.0 0.00 0.00 0.00 60 1020.4
20260508082519 67 273 4.0 7.0 0.00 0.00 0.00 60 1020.4
20260508082015 67 216 3.0 8.0 0.00 0.00 0.00 58 1020.3
20260508081526 67 218 4.0 10.0 0.00 0.00 0.00 58 1020.4
20260508081017 67 254 5.0 10.0 0.00 0.00 0.00 57 1020.5
20260508080514 67 276 5.0 9.0 0.00 0.00 0.00 56 1020.4
20260508080014 67 253 5.0 13.0 0.00 0.00 0.00 54 1020.5
20260508075514 67 258 8.0 13.0 0.00 0.00 0.00 55 1020.5
20260508075013 67 270 7.0 12.0 0.00 0.00 0.00 54 1020.5
20260508074513 67 265 9.0 12.0 0.00 0.00 0.00 53 1020.6
20260508074013 68 264 6.0 9.0 0.00 0.00 0.00 52 1020.5
20260508073511 68 211 5.0 9.0 0.00 0.00 0.00 50 1020.6
20260508073010 68 213 3.0 8.0 0.00 0.00 0.00 50 1020.6
20260508072508 67 246 4.0 8.0 0.00 0.00 0.00 50 1020.8
20260508072007 67 201 4.0 9.0 0.00 0.00 0.00 49 1021.0
20260508071517 67 248 5.0 9.0 0.00 0.00 0.00 48 1021.1
20260508071004 67 234 6.0 8.0 0.00 0.00 0.00 47 1021.1
20260508070504 67 219 5.0 9.0 0.00 0.00 0.00 46 1021.2
20260508070004 67 242 6.0 10.0 0.00 0.00 0.00 46 1021.2
20260508065505 67 249 6.0 11.0 0.00 0.00 0.00 47 1021.4
20260508065002 67 261 6.0 10.0 0.00 0.00 0.00 47 1021.3
20260508064505 67 265 7.0 10.0 0.00 0.00 0.00 47 1021.2
20260508064100 67 232 5.0 9.0 0.00 0.00 0.00 47 1021.1
20260508063559 67 265 5.0 9.0 0.00 0.00 0.00 46 1021.0
20260508063058 67 243 5.0 10.0 0.00 0.00 0.00 46 1020.9
20260508062557 67 244 7.0 10.0 0.00 0.00 0.00 47 1020.9
20260508062056 67 242 6.0 9.0 0.00 0.00 0.00 48 1020.8
20260508061557 67 273 5.0 8.0 0.00 0.00 0.00 50 1020.8
20260508061056 67 257 5.0 8.0 0.00 0.00 0.00 50 1020.7
20260508060555 67 280 5.0 8.0 0.00 0.00 0.00 50 1020.6
20260508060054 67 271 5.0 8.0 0.00 0.00 0.00 52 1020.5
20260508055557 67 307 4.0 7.0 0.00 0.00 0.00 54 1020.3
20260508055052 67 278 3.0 5.0 0.00 0.00 0.00 54 1020.0
20260508054607 67 278 2.0 6.0 0.00 0.00 0.00 56 1019.8
20260508054051 66 267 3.0 6.0 0.00 0.00 0.00 56 1019.6
20260508053550 66 254 3.0 4.0 0.00 0.00 0.00 55 1019.4
20260508053053 66 252 2.0 4.0 0.00 0.00 0.00 55 1019.3
20260508052549 66 286 1.0 3.0 0.00 0.00 0.00 55 1019.2
20260508052048 67 292 1.0 3.0 0.00 0.00 0.00 54 1019.1
20260508051548 67 219 1.0 3.0 0.00 0.00 0.00 54 1019.0
20260508051048 66 205 2.0 3.0 0.00 0.00 0.00 54 1018.9
20260508050547 66 191 0.0 2.0 0.00 0.00 0.00 55 1018.9
20260508050046 66 190 0.0 2.0 0.00 0.00 0.00 55 1019.0
20260508045545 65 190 0.0 3.0 0.00 0.00 0.00 56 1018.9
20260508045043 65 194 2.0 4.0 0.00 0.00 0.00 56 1018.8
20260508044544 66 211 2.0 3.0 0.00 0.00 0.00 55 1018.9
20260508044044 65 326 1.0 3.0 0.00 0.00 0.00 54 1018.9
20260508043539 65 332 1.0 3.0 0.00 0.00 0.00 57 1018.8
20260508043038 66 342 1.0 3.0 0.00 0.00 0.00 56 1018.7
20260508042537 66 10 1.0 3.0 0.00 0.00 0.00 52 1018.4
20260508042036 66 38 0.0 4.0 0.00 0.00 0.00 53 1018.4
20260508041538 65 12 2.0 4.0 0.00 0.00 0.00 56 1018.4
20260508041035 64 61 2.0 5.0 0.00 0.00 0.00 57 1018.3
20260508040535 64 71 2.0 5.0 0.00 0.00 0.00 61 1018.2
20260508040036 64 360 3.0 5.0 0.00 0.00 0.00 61 1018.2
20260508035534 65 355 2.0 5.0 0.00 0.00 0.00 57 1018.1
20260508035033 65 76 2.0 4.0 0.00 0.00 0.00 55 1017.9
20260508034538 65 67 1.0 3.0 0.00 0.00 0.00 57 1018.0
20260508034032 65 54 1.0 3.0 0.00 0.00 0.00 58 1017.9
20260508033532 65 48 1.0 5.0 0.00 0.00 0.00 59 1018.0
20260508033036 65 17 2.0 5.0 0.00 0.00 0.00 58 1018.0
20260508032533 65 31 2.0 4.0 0.00 0.00 0.00 59 1017.9
20260508032032 64 36 2.0 4.0 0.00 0.00 0.00 60 1018.0
20260508031536 64 11 3.0 4.0 0.00 0.00 0.00 60 1018.1
20260508031034 65 69 1.0 3.0 0.00 0.00 0.00 59 1018.0
20260508030531 65 88 0.0 3.0 0.00 0.00 0.00 57 1017.7
20260508030035 64 74 0.0 5.0 0.00 0.00 0.00 58 1017.7
20260508025535 64 71 3.0 5.0 0.00 0.00 0.00 60 1017.6
20260508025029 64 30 2.0 4.0 0.00 0.00 0.00 61 1018.0
20260508024529 63 46 0.0 3.0 0.00 0.00 0.00 64 1018.0
20260508024029 64 14 1.0 3.0 0.00 0.00 0.00 64 1018.0
20260508023529 64 72 1.0 3.0 0.00 0.00 0.00 60 1018.0
20260508023036 64 71 1.0 4.0 0.00 0.00 0.00 61 1018.1
20260508022528 64 46 1.0 4.0 0.00 0.00 0.00 61 1018.2
20260508022028 64 61 0.0 3.0 0.00 0.00 0.00 62 1018.1
20260508021530 64 59 1.0 3.0 0.00 0.00 0.00 63 1017.9
20260508021028 64 58 1.0 4.0 0.00 0.00 0.00 64 1018.1
20260508020527 63 61 2.0 4.0 0.00 0.00 0.00 65 1018.1
20260508020027 63 29 0.0 4.0 0.00 0.00 0.00 67 1018.2
20260508015527 64 44 2.0 4.0 0.00 0.00 0.00 66 1018.1
20260508015026 63 57 1.0 3.0 0.00 0.00 0.00 66 1018.1
20260508014525 63 57 0.0 2.0 0.00 0.00 0.00 67 1018.1
20260508014023 63 58 0.0 3.0 0.00 0.00 0.00 67 1018.4
20260508013523 63 57 0.0 3.0 0.00 0.00 0.00 67 1018.3
20260508013023 63 52 1.0 3.0 0.00 0.00 0.00 67 1018.4
20260508012525 64 56 1.0 3.0 0.00 0.00 0.00 67 1018.5
20260508012022 64 55 1.0 2.0 0.00 0.00 0.00 67 1018.5
20260508011521 64 54 0.0 2.0 0.00 0.00 0.00 67 1018.6
20260508011021 64 49 0.0 2.0 0.00 0.00 0.00 67 1018.7
20260508010521 64 46 0.0 0.0 0.00 0.00 0.00 67 1018.8
20260508010022 64 44 0.0 0.0 0.00 0.00 0.00 67 1018.8
20260508005520 64 43 0.0 1.0 0.00 0.00 0.00 66 1018.7
20260508005020 64 43 0.0 2.0 0.00 0.00 0.00 67 1018.9
20260508004519 64 34 0.0 2.0 0.00 0.00 0.00 66 1018.9